Provo, UT

4:13 PM MST on November 11, 2019 (GMT -0700)
Provo Municipal

Weather History for KPVU - September, 2019

Change the Weather History Date:

Saturday, September 28, 2019

  Actual Average Record
Temperature  
Mean Temperature 63 °F -  
Max Temperature 77 °F 70 °F 87 °F (1989)
Min Temperature 51 °F 43 °F 32 °F (1999)
Degree Days  
Heating Degree Days 2    
Growing Degree Days 13 (Base 50)    
Moisture  
Dew Point 48 °F    
Average Humidity 66    
Maximum Humidity 88    
Minimum Humidity 38    
Precipitation  
Precipitation 0.00 in - - ()
Sea Level Pressure  
Sea Level Pressure 29.52 in    
Wind  
Wind Speed 10 mph (West)    
Max Wind Speed 21 mph    
Max Gust Speed 32 mph    
Visibility 10 miles    
Events Rain , Thunderstorm    
Averages and records for this station are not official NWS values.
T = Trace of Precipitation, MM = Missing Value Source: NWS Daily Summary

Daily Weather History Graph

Daily Weather History Graph

Search for Another Location

Airport or City:

Astronomy

Sep. 28, 2019 Rise Set
Actual Time 7:20 AM MDT 7:14 PM MDT
Civil Twilight 6:53 AM MDT 7:41 PM MDT
Nautical Twilight 6:21 AM MDT 8:12 PM MDT
Astronomical Twilight 5:49 AM MDT 8:44 PM MDT
Moon 7:00 AM MDT (9/28) 7:42 PM MDT (9/28)
Length of Visible Light 12h 48m
Length of Day
11h 54m
Waning Crescent, 0% of the Moon is Illuminated
Sep 28
Waning Crescent
Sep 28
New
Oct 5
First Quarter
Oct 13
Full
Oct 21
Last Quarter

Hourly Weather History & Observations

Time (MDT) Temp. Dew Point Humidity Pressure Visibility Wind Dir Wind Speed Gust Speed Precip Events Conditions
12:56 AM 59.0 °F 50.0 °F 72% 29.59 in 10.0 mi SE 12.7 mph - 0.00 in   Overcast
1:56 AM 57.9 °F 50.0 °F 75% 29.58 in 10.0 mi West 5.8 mph - N/A   Partly Cloudy
2:56 AM 57.9 °F 50.0 °F 75% 29.59 in 10.0 mi ENE 4.6 mph - N/A   Partly Cloudy
3:22 AM 57.2 °F 51.8 °F 82% 29.72 in 10.0 mi South 5.8 mph - N/A Thunderstorm Mostly Cloudy
3:33 AM 55.4 °F 51.8 °F 88% 29.71 in 10.0 mi SE 3.5 mph - N/A Thunderstorm Overcast
3:54 AM 55.4 °F 51.8 °F 88% 29.70 in 10.0 mi East 4.6 mph - N/A   Mostly Cloudy
3:56 AM 55.9 °F 51.1 °F 84% 29.57 in 10.0 mi East 6.9 mph - N/A   Mostly Cloudy
5:56 AM 57.0 °F 52.0 °F 83% 29.54 in 10.0 mi East 6.9 mph - N/A   Overcast
6:56 AM 57.9 °F 50.0 °F 75% 29.54 in 10.0 mi Calm Calm - N/A   Mostly Cloudy
7:56 AM 60.1 °F 50.0 °F 69% 29.54 in 10.0 mi Calm Calm - N/A   Mostly Cloudy
8:56 AM 66.9 °F 50.0 °F 54% 29.52 in 10.0 mi SSW 11.5 mph - N/A   Mostly Cloudy
9:56 AM 69.1 °F 48.9 °F 49% 29.51 in 10.0 mi South 13.8 mph - N/A   Mostly Cloudy
10:56 AM 70.0 °F 48.0 °F 46% 29.51 in 10.0 mi South 12.7 mph - N/A   Mostly Cloudy
11:56 AM 73.0 °F 48.9 °F 42% 29.48 in 10.0 mi South 17.3 mph - N/A   Mostly Cloudy
12:56 PM 72.0 °F 48.9 °F 44% 29.45 in 10.0 mi SSW 12.7 mph - N/A   Mostly Cloudy
1:56 PM 75.0 °F 48.0 °F 38% 29.42 in 10.0 mi SW 19.6 mph 26.5 mph N/A   Mostly Cloudy
2:56 PM 73.0 °F 51.1 °F 46% 29.39 in 10.0 mi SW 16.1 mph - N/A   Mostly Cloudy
3:56 PM 73.9 °F 48.0 °F 40% 29.38 in 10.0 mi SW 20.7 mph - N/A   Mostly Cloudy
4:56 PM 63.0 °F 48.9 °F 60% 29.40 in 10.0 mi WNW 15.0 mph 25.3 mph N/A   Mostly Cloudy
5:03 PM 64.4 °F 46.4 °F 52% 29.51 in 10.0 mi WNW 16.1 mph - N/A   Mostly Cloudy
5:23 PM 60.8 °F 48.2 °F 63% 29.52 in 10.0 mi NNW 17.3 mph 32.2 mph N/A   Overcast
5:56 PM 59.0 °F 45.0 °F 60% 29.43 in 10.0 mi NNW 17.3 mph 23.0 mph N/A   Mostly Cloudy
6:56 PM 57.9 °F 46.9 °F 67% 29.42 in 10.0 mi NW 15.0 mph - N/A   Mostly Cloudy
7:56 PM 55.0 °F 46.0 °F 72% 29.41 in 10.0 mi NNW 16.1 mph - 0.00 in   Mostly Cloudy
8:56 PM 54.0 °F 45.0 °F 72% 29.43 in 10.0 mi NNW 19.6 mph 27.6 mph N/A   Partly Cloudy
9:56 PM 53.1 °F 44.1 °F 71% 29.47 in 10.0 mi NNW 3.5 mph - N/A   Clear
10:56 PM 53.1 °F 46.0 °F 77% 29.48 in 10.0 mi NW 11.5 mph - N/A   Partly Cloudy
11:38 PM 51.8 °F 44.6 °F 76% 29.60 in 10.0 mi WNW 8.1 mph - 0.00 in Rain , Thunderstorm Light Rain
11:53 PM 51.8 °F 46.4 °F 82% 29.59 in 10.0 mi North 8.1 mph - 0.00 in Rain Light Rain
11:56 PM 52.0 °F 46.0 °F 80% 29.46 in 10.0 mi North 5.8 mph - 0.00 in Rain Light Rain